Temp
3 3 3 2 2 2 2 2 2 2 2 2 2 2 2 2 2 2 2 2 2 2 2 2 2 2 1 1 1 1 1 1 1 1 1 1 1 1 1 1 1 1 1 1 2 2 2 3 3 3 3 3 4 4 4 4 5 5 5 5 6 6 7 7 7 7 8 8 8
3 3 3 2 2 2 2 2 2 2 1 1 1 1 1 1 1 1 1 2 2 2 1 1 1 1 1 1 1 1 0 0 0 0 0 0 0 0 0 1 1 1 1 1 1 2 2 2 2 3 3 3 3 4 4 4 4 4 5 5 5 6 6 6 7 7 7 7 8
3 3 2 2 2 2 2 1 1 1 1 1 1 1 1 1 1 1 1 1 1 1 1 1 1 1 1 1 0 0 0 0 0 0 0 0 0 0 0 0 0 1 1 1 1 1 1 2 2 2 3 3 3 3 4 4 4 4 4 4 5 5 5 6 7 7 7 7 7
3 2 2 2 1 1 1 1 1 0 0 0 0 1 1 1 1 1 1 1 1 1 1 1 1 0 0 0 0 0 0 0 0 0 -0 -0 -0 -0 -0 -0 0 0 0 0 1 1 1 1 2 2 2 3 3 3 3 4 4 4 4 4 4 4 5 5 6 7 7 7 7
3 2 2 1 1 1 1 0 0 0 0 0 0 0 1 1 1 1 1 0 0 0 0 0 0 0 0 -0 -0 0 0 -0 -0 -0 -0 -1 -1 -1 -0 -0 -0 -0 -0 0 0 0 1 1 1 2 2 2 3 3 3 3 4 4 4 4 4 4 4 5 5 6 6 7 7
2 2 1 1 1 0 0 0 0 -0 -0 0 0 1 1 1 1 0 0 0 0 0 0 0 0 0 -0 -0 -0 -0 -0 -1 -1 -1 -1 -1 -1 -1 -1 -1 -1 -1 -0 -0 -0 0 0 1 1 1 1 2 2 2 3 3 3 3 3 4 4 4 4 4 4 5 5 6 7
2 1 1 1 0 0 0 0 -0 -0 -0 0 0 0 0 0 0 0 -0 -0 -0 -0 0 -0 -0 -0 -0 -0 -1 -1 -1 -1 -1 -1 -1 -1 -1 -1 -1 -1 -1 -1 -1 -1 -0 -0 -0 0 1 1 1 1 2 2 2 2 2 3 3 3 4 4 4 4 4 5 5 6 6
1 1 1 0 0 0 0 -0 -0 -0 -0 -0 -0 -0 -0 -0 -0 -0 -0 -0 -0 -0 -0 -0 -0 -1 -1 -1 -1 -1 -1 -1 -1 -1 -1 -1 -1 -1 -1 -1 -1 -1 -1 -1 -1 -1 -0 -0 0 1 1 1 2 2 2 2 2 2 3 3 3 3 4 4 4 5 5 5 6
1 0 0 0 0 0 -0 -0 -1 -1 -1 -0 -0 -0 -1 -1 -1 -1 -0 -0 -0 -0 -0 -1 -1 -1 -1 -1 -1 -1 -1 -2 -2 -2 -2 -2 -1 -1 -1 -1 -1 -1 -1 -1 -1 -1 -1 -0 -0 0 1 1 1 1 2 2 2 2 2 2 2 2 3 3 4 4 4 5 5
0 0 -0 -0 -0 -0 -1 -1 -1 -1 -1 -1 -1 -1 -1 -1 -1 -1 -1 -1 -1 -1 -1 -1 -1 -1 -1 -2 -2 -2 -2 -2 -2 -2 -2 -2 -2 -2 -2 -2 -1 -1 -1 -1 -1 -1 -1 -1 -0 -0 0 0 1 1 1 1 2 2 2 2 2 2 2 3 3 3 4 4 4
0 0 -0 -0 -1 -1 -1 -1 -1 -1 -1 -1 -1 -1 -1 -1 -1 -1 -1 -1 -1 -1 -1 -1 -1 -2 -2 -2 -2 -2 -2 -2 -2 -2 -2 -2 -2 -2 -2 -2 -2 -1 -1 -1 -1 -1 -1 -1 -0 -0 -0 0 0 1 1 1 1 1 2 2 2 2 2 3 3 3 3 4 4
0 -0 -0 -1 -1 -1 -1 -1 -1 -2 -2 -1 -2 -2 -1 -1 -1 -1 -2 -2 -2 -2 -2 -2 -2 -2 -2 -2 -2 -2 -2 -2 -2 -2 -2 -2 -2 -2 -2 -2 -2 -2 -1 -1 -1 -1 -1 -1 -0 -0 -0 0 0 0 1 1 1 1 2 2 2 2 2 3 3 3 3 4 4
-0 -0 -1 -1 -1 -1 -2 -2 -2 -2 -2 -2 -2 -2 -2 -2 -2 -2 -2 -2 -2 -2 -2 -2 -2 -2 -2 -2 -2 -2 -2 -2 -2 -2 -2 -2 -2 -2 -2 -2 -2 -2 -2 -1 -1 -1 -1 -1 -0 -0 -0 -0 0 0 0 1 1 1 2 2 2 2 2 2 3 3 3 3 4
-0 -1 -1 -1 -1 -2 -2 -2 -2 -2 -2 -2 -2 -2 -2 -2 -2 -2 -2 -2 -2 -2 -3 -3 -2 -2 -2 -2 -2 -2 -2 -2 -2 -2 -2 -2 -2 -2 -2 -2 -2 -2 -2 -1 -1 -1 -1 -1 -1 -0 -0 -0 -0 -0 0 0 0 1 1 1 2 2 2 2 2 3 3 3 4
-1 -1 -1 -1 -1 -2 -2 -2 -2 -2 -2 -2 -2 -2 -3 -3 -3 -3 -3 -3 -3 -3 -3 -3 -3 -3 -3 -3 -3 -3 -3 -3 -3 -2 -2 -2 -2 -2 -2 -2 -2 -2 -2 -2 -1 -1 -1 -1 -1 -1 -1 -0 -0 -0 -0 -0 0 0 1 1 1 1 2 2 2 3 3 3 3
-1 -1 -1 -1 -2 -2 -2 -2 -2 -2 -3 -3 -3 -3 -3 -3 -3 -3 -3 -3 -3 -3 -3 -3 -3 -3 -3 -3 -3 -3 -3 -3 -3 -3 -2 -2 -2 -2 -2 -2 -2 -2 -2 -2 -2 -1 -1 -1 -1 -1 -1 -1 -0 -0 -0 -0 0 0 0 1 1 1 2 2 2 3 3 3 3
-1 -1 -1 -2 -2 -2 -2 -2 -2 -3 -3 -3 -3 -3 -3 -3 -3 -3 -3 -3 -3 -3 -3 -3 -3 -3 -3 -3 -3 -3 -3 -3 -3 -3 -2 -2 -2 -2 -2 -2 -2 -2 -2 -2 -2 -2 -2 -1 -1 -1 -1 -1 -0 -0 -0 -0 -0 0 0 1 1 1 2 2 2 2 3 3 3
-1 -1 -1 -2 -2 -2 -2 -2 -3 -3 -3 -3 -3 -3 -3 -3 -3 -3 -3 -4 -4 -3 -3 -3 -3 -3 -3 -3 -3 -3 -3 -3 -3 -3 -2 -2 -2 -2 -2 -2 -2 -2 -2 -2 -2 -2 -2 -2 -1 -1 -1 -1 -1 -0 -0 -0 -0 -0 0 0 1 1 1 2 2 2 2 2 3
-1 -1 -2 -2 -2 -2 -3 -3 -3 -3 -3 -3 -3 -3 -3 -3 -3 -3 -4 -4 -4 -4 -4 -3 -3 -3 -3 -3 -3 -3 -3 -3 -3 -3 -2 -2 -2 -2 -2 -2 -2 -2 -2 -2 -2 -2 -2 -2 -2 -1 -1 -1 -1 -1 -0 -0 -0 -0 -0 0 0 1 1 1 2 2 2 2 2
-2 -2 -2 -2 -2 -3 -3 -3 -3 -3 -3 -3 -3 -3 -3 -3 -4 -4 -4 -4 -4 -4 -4 -4 -4 -4 -4 -3 -3 -3 -3 -3 -3 -3 -2 -2 -2 -2 -2 -2 -2 -2 -2 -2 -2 -2 -2 -2 -2 -2 -1 -1 -1 -1 -1 -0 -0 -0 0 0 0 0 1 1 1 1 2 2 2
-2 -2 -2 -3 -3 -3 -3 -3 -3 -3 -3 -3 -3 -4 -4 -4 -4 -4 -4 -4 -4 -4 -4 -4 -4 -4 -4 -4 -3 -3 -3 -3 -3 -3 -3 -3 -2 -2 -2 -2 -2 -2 -2 -2 -2 -2 -2 -2 -2 -2 -2 -1 -1 -1 -1 -0 -0 -0 -1 -1 -1 -1 -0 -0 -0 0 0 1 1
-2 -2 -3 -3 -3 -3 -3 -3 -3 -3 -4 -4 -4 -4 -4 -4 -4 -4 -4 -4 -4 -4 -4 -4 -4 -4 -4 -4 -3 -3 -3 -3 -3 -3 -3 -3 -2 -2 -2 -2 -2 -2 -2 -2 -2 -2 -2 -2 -2 -2 -2 -1 -1 -1 -1 -1 -1 -1 -1 -1 -1 -1 -1 -1 -1 -1 -0 -0 0
-2 -3 -3 -3 -3 -3 -3 -3 -3 -3 -4 -4 -4 -4 -4 -4 -4 -4 -4 -4 -4 -4 -4 -4 -4 -4 -4 -4 -4 -3 -3 -3 -3 -3 -3 -3 -2 -2 -2 -2 -2 -2 -2 -2 -2 -2 -2 -2 -2 -2 -2 -2 -2 -2 -2 -2 -2 -2 -2 -2 -2 -2 -1 -1 -1 -1 -1 -0 0
-3 -3 -3 -3 -3 -3 -3 -3 -3 -3 -4 -4 -4 -4 -4 -4 -4 -4 -4 -4 -4 -4 -4 -4 -4 -4 -4 -4 -4 -3 -3 -3 -3 -3 -3 -2 -2 -2 -2 -2 -2 -2 -2 -2 -2 -2 -2 -2 -2 -2 -2 -2 -2 -2 -2 -2 -2 -2 -2 -2 -2 -2 -2 -2 -1 -1 -1 -1 -0
-3 -3 -3 -3 -3 -3 -3 -3 -4 -4 -4 -4 -4 -4 -4 -4 -4 -4 -4 -4 -4 -4 -4 -4 -4 -4 -4 -4 -4 -3 -3 -3 -3 -2 -2 -2 -2 -2 -2 -2 -2 -2 -2 -2 -2 -2 -2 -2 -2 -2 -2 -2 -2 -2 -3 -3 -3 -2 -2 -2 -2 -2 -2 -2 -2 -1 -1 -1 -1
-3 -3 -3 -3 -3 -3 -3 -4 -4 -4 -4 -4 -4 -4 -4 -4 -4 -4 -4 -4 -4 -4 -4 -4 -4 -4 -4 -3 -3 -3 -2 -2 -2 -2 -1 -1 -1 -1 -1 -1 -1 -1 -1 -1 -1 -1 -2 -2 -2 -2 -2 -2 -3 -3 -3 -3 -3 -3 -3 -2 -2 -2 -2 -2 -2 -1 -1 -1 -1
-3 -3 -3 -3 -3 -4 -4 -4 -4 -4 -4 -4 -4 -4 -4 -5 -4 -4 -4 -4 -4 -4 -4 -4 -4 -4 -3 -3 -2 -2 -2 -2 -1 -1 -1 -1 -1 -1 -1 -1 -1 -1 -1 -1 -1 -1 -2 -2 -2 -2 -2 -3 -3 -3 -3 -3 -3 -3 -3 -3 -2 -2 -2 -2 -2 -1 -1 -1 -1
-3 -3 -3 -4 -4 -4 -4 -4 -4 -4 -4 -5 -5 -5 -5 -5 -5 -4 -4 -4 -4 -4 -4 -4 -3 -3 -3 -2 -2 -2 -1 -1 -1 -1 -1 -1 -0 -0 -0 -0 -0 -1 -1 -1 -1 -2 -2 -2 -2 -2 -2 -3 -3 -3 -3 -3 -3 -3 -3 -3 -3 -2 -2 -2 -2 -2 -1 -1 -1
-3 -4 -4 -4 -4 -4 -4 -4 -4 -5 -5 -5 -5 -5 -5 -5 -5 -5 -4 -4 -4 -4 -4 -3 -3 -3 -2 -2 -2 -1 -1 -1 -1 -1 -0 -0 -0 -0 -0 -0 -1 -1 -1 -1 -2 -2 -2 -2 -2 -2 -3 -3 -3 -3 -3 -3 -3 -3 -3 -3 -3 -2 -2 -2 -2 -2 -2 -1 -1
-4 -4 -4 -4 -4 -4 -4 -5 -5 -5 -5 -5 -5 -5 -5 -5 -5 -5 -5 -4 -4 -4 -4 -3 -3 -3 -2 -2 -2 -1 -1 -1 -1 -0 -0 -0 -0 -0 -0 -1 -1 -1 -1 -2 -2 -2 -2 -2 -2 -3 -3 -3 -3 -3 -3 -3 -3 -3 -3 -3 -3 -3 -2 -2 -2 -2 -2 -2 -1
-4 -4 -4 -4 -4 -5 -5 -5 -5 -5 -5 -5 -5 -5 -5 -5 -5 -5 -5 -4 -4 -4 -3 -3 -3 -2 -2 -2 -2 -1 -1 -1 -0 -0 -0 -0 -0 -1 -1 -1 -1 -1 -1 -2 -2 -2 -2 -2 -2 -2 -3 -3 -3 -3 -3 -3 -3 -3 -3 -3 -3 -3 -2 -2 -2 -2 -2 -2 -1
-4 -4 -4 -5 -5 -5 -5 -5 -5 -5 -5 -5 -5 -5 -5 -5 -5 -5 -4 -4 -4 -3 -3 -3 -2 -2 -2 -2 -2 -1 -1 -1 -1 -1 -1 -1 -1 -1 -1 -1 -1 -1 -1 -2 -2 -2 -2 -2 -2 -2 -2 -3 -3 -3 -3 -3 -3 -3 -3 -3 -3 -2 -2 -2 -2 -2 -2 -1 -1
-4 -5 -5 -5 -5 -5 -5 -5 -5 -5 -5 -5 -5 -5 -5 -5 -5 -5 -4 -4 -4 -3 -3 -3 -3 -2 -2 -2 -2 -1 -1 -1 -1 -1 -1 -1 -1 -1 -1 -1 -1 -1 -2 -2 -2 -2 -2 -2 -2 -2 -2 -2 -2 -3 -3 -3 -3 -3 -3 -3 -2 -2 -2 -2 -2 -2 -1 -1 -1
-5 -5 -5 -5 -5 -5 -5 -5 -5 -5 -5 -5 -5 -5 -5 -5 -5 -5 -4 -4 -4 -3 -3 -3 -3 -3 -2 -2 -2 -2 -1 -1 -1 -1 -1 -1 -1 -1 -1 -1 -1 -1 -2 -2 -2 -2 -2 -2 -2 -2 -2 -2 -2 -3 -3 -3 -3 -3 -2 -2 -2 -2 -2 -2 -2 -1 -1 -1 -1
-5 -5 -5 -5 -5 -5 -5 -5 -6 -5 -5 -5 -5 -5 -5 -5 -5 -4 -4 -4 -4 -3 -3 -3 -3 -3 -2 -2 -2 -2 -1 -1 -1 -1 -2 -2 -2 -2 -2 -2 -2 -1 -1 -1 -1 -1 -2 -2 -2 -2 -2 -2 -2 -3 -3 -3 -2 -2 -2 -2 -2 -2 -2 -2 -1 -1 -1 -1 -0
-5 -5 -5 -5 -6 -6 -6 -6 -6 -6 -5 -5 -5 -5 -5 -5 -5 -4 -4 -4 -4 -4 -3 -3 -3 -3 -2 -2 -2 -2 -2 -2 -2 -2 -2 -2 -2 -2 -2 -2 -2 -2 -1 -1 -1 -1 -1 -2 -2 -2 -2 -2 -2 -2 -2 -2 -2 -2 -2 -2 -2 -2 -2 -1 -1 -1 -1 -1 -1
-5 -6 -6 -6 -6 -6 -6 -6 -6 -6 -5 -5 -5 -5 -5 -5 -5 -4 -4 -4 -4 -4 -4 -3 -3 -3 -2 -2 -2 -2 -2 -2 -2 -2 -2 -2 -2 -2 -2 -2 -2 -2 -2 -1 -1 -1 -1 -2 -2 -2 -2 -2 -2 -2 -2 -2 -2 -2 -2 -2 -2 -2 -2 -1 -1 -1 -1 -1 -1
-6 -6 -6 -6 -6 -6 -6 -6 -6 -6 -5 -5 -5 -5 -5 -5 -4 -4 -4 -4 -4 -4 -4 -3 -3 -3 -3 -2 -2 -2 -2 -2 -2 -2 -2 -2 -2 -2 -2 -2 -2 -2 -2 -2 -1 -1 -1 -1 -2 -2 -2 -2 -2 -2 -2 -2 -2 -2 -2 -2 -2 -2 -2 -2 -2 -1 -1 -1 -1
-6 -6 -6 -6 -6 -6 -6 -6 -5 -5 -5 -5 -5 -5 -5 -5 -4 -4 -4 -4 -4 -4 -3 -3 -3 -3 -3 -3 -3 -3 -3 -3 -2 -2 -2 -2 -2 -2 -2 -2 -2 -2 -2 -1 -1 -1 -1 -1 -1 -2 -2 -2 -2 -2 -2 -2 -2 -2 -2 -2 -2 -2 -2 -2 -2 -2 -2 -1 -1
-6 -6 -6 -6 -6 -6 -5 -5 -5 -5 -5 -5 -5 -5 -5 -5 -5 -4 -4 -4 -4 -3 -3 -3 -3 -3 -3 -3 -3 -3 -3 -3 -2 -2 -2 -2 -2 -2 -2 -2 -2 -2 -1 -1 -1 -1 -1 -1 -1 -2 -2 -2 -2 -2 -2 -2 -2 -2 -2 -2 -2 -2 -2 -2 -2 -2 -2 -2 -2
-6 -6 -6 -6 -6 -5 -5 -5 -5 -5 -5 -5 -5 -5 -5 -5 -4 -4 -4 -4 -3 -3 -3 -3 -3 -3 -3 -3 -3 -3 -3 -3 -3 -3 -2 -2 -2 -2 -2 -2 -2 -2 -2 -1 -1 -1 -1 -1 -2 -2 -2 -2 -2 -2 -2 -2 -2 -2 -2 -2 -2 -2 -2 -2 -2 -2 -2 -2 -2
Height
800 800 800 800 800 800 800 799 799 799 799 799 798 798 798 798 798 797 797 797 797 797 796 796 796 795 795 795 795 794 794 793 793 793 792 792 792 791 791 790 790 790 790 790 789 789 788 788 787 786 785 785 784 784 783 783 782 782 781 781 780 780 779 779 778 777 777 776 775
801 800 800 800 800 800 799 799 799 799 798 798 798 798 798 798 797 797 797 797 797 796 796 796 795 795 795 794 794 794 793 792 792 792 791 791 791 790 790 790 790 789 789 789 788 788 787 787 786 785 785 784 783 783 782 782 782 781 781 780 780 779 779 778 777 776 776 775 775
801 800 800 800 800 799 799 799 799 798 798 798 798 798 797 797 797 797 797 797 796 796 795 795 795 794 794 793 793 793 792 792 791 791 790 790 790 790 789 789 789 788 788 787 787 787 786 786 785 785 784 783 783 782 782 781 781 781 780 780 779 779 778 777 776 776 775 775 774
801 800 800 800 799 799 799 799 798 798 798 798 798 797 797 797 797 797 796 796 796 795 795 795 794 793 793 793 792 792 791 791 791 790 790 789 789 789 788 788 788 787 787 786 786 785 785 785 784 783 783 782 781 781 780 780 780 780 779 779 778 778 777 776 775 775 774 774 773
800 800 800 800 799 799 799 799 798 798 798 797 797 797 797 797 796 796 796 795 795 795 794 794 793 793 792 792 791 791 790 790 790 789 789 788 788 788 787 787 786 786 786 785 785 785 784 784 783 783 782 781 780 780 780 779 779 778 778 778 777 777 776 775 775 774 773 773 772
800 800 800 800 799 799 799 799 798 798 798 797 797 797 797 796 796 795 795 795 794 794 793 793 792 792 791 791 790 790 789 789 789 788 788 787 787 787 786 786 785 785 785 785 784 784 783 783 782 782 781 780 780 779 779 779 778 777 777 776 776 776 775 775 774 773 772 771 771
800 800 800 799 799 799 799 798 798 798 797 797 797 796 796 796 795 795 794 794 793 793 792 792 791 791 790 790 789 789 788 788 788 787 787 786 786 786 785 785 785 785 784 784 783 783 782 782 781 781 780 780 779 779 778 778 777 777 776 775 775 775 774 774 773 772 772 770 770
800 800 800 799 799 799 798 798 798 797 797 796 796 796 795 795 795 794 793 793 792 792 791 791 790 790 790 789 788 788 787 787 786 786 786 785 785 785 785 784 784 784 783 783 783 782 782 781 781 780 780 779 778 778 777 777 777 776 775 775 774 774 773 772 772 771 770 769 768
800 800 799 799 799 799 798 798 797 797 796 796 795 795 795 794 794 793 793 792 792 791 791 790 790 789 789 788 787 787 786 786 785 785 785 785 784 784 783 783 783 782 782 782 782 781 781 780 780 779 779 778 777 777 776 776 776 775 775 774 773 772 772 771 771 770 769 768 767
799 799 799 799 798 798 797 797 796 796 796 795 795 795 794 793 793 793 792 791 791 790 790 790 789 788 788 787 786 786 785 785 785 784 784 784 783 783 782 782 782 781 781 781 780 780 780 780 779 778 778 777 777 776 775 775 775 774 773 773 772 771 770 770 769 769 768 767 765
799 799 799 798 798 797 797 796 796 795 795 795 794 794 793 793 792 792 791 790 790 790 789 789 788 787 787 786 785 785 785 784 784 783 783 782 782 782 781 781 781 780 780 780 780 779 779 778 778 777 777 776 776 775 775 774 774 773 772 771 771 770 770 768 768 767 766 765 765
798 798 798 798 797 797 796 795 795 795 794 794 793 793 792 792 791 791 790 790 789 789 788 788 787 786 786 785 785 784 784 783 783 782 782 781 781 781 780 780 780 780 779 779 778 778 777 777 776 776 775 775 775 774 773 773 772 771 770 770 769 769 768 767 767 766 765 764 763
798 798 797 797 796 796 795 795 794 794 794 793 793 792 791 791 790 790 789 789 788 788 787 787 786 785 785 784 784 783 783 782 782 781 781 780 780 780 779 779 779 778 778 778 777 777 776 776 775 775 774 774 773 773 772 771 771 770 769 768 768 767 766 766 765 765 764 763 762
797 797 796 796 795 795 795 794 793 793 793 792 791 791 790 790 789 789 788 788 787 787 786 785 785 785 784 784 783 782 782 781 781 780 780 780 779 779 778 778 778 777 777 776 776 776 775 775 774 774 773 772 772 771 771 770 770 769 768 767 766 766 765 765 764 764 763 762 761
796 796 795 795 795 794 794 793 793 792 792 791 790 790 789 789 788 788 787 787 786 786 785 785 784 784 783 783 782 782 781 780 780 780 779 778 778 778 777 777 777 776 776 775 775 775 774 774 773 772 771 771 770 770 769 769 768 767 767 766 765 765 764 763 762 762 761 760 760
795 795 795 794 794 793 793 792 792 791 791 790 790 789 789 788 788 787 787 786 786 785 785 784 784 783 782 782 781 781 780 780 779 779 778 777 777 777 776 776 775 775 775 774 774 773 773 772 772 771 770 770 769 768 768 767 766 766 765 765 764 763 762 761 761 760 759 759 758
794 794 794 793 793 793 792 792 791 791 790 790 789 789 788 788 787 787 786 786 785 785 784 783 783 782 781 781 780 780 779 779 778 778 777 776 776 775 775 775 775 774 774 773 772 772 771 771 770 770 769 768 767 767 766 765 765 764 764 763 762 761 760 760 759 758 757 757 756
793 793 793 793 792 792 791 791 790 790 790 789 789 788 788 787 787 786 786 785 785 784 783 782 782 781 780 780 779 779 778 778 777 776 776 775 775 775 774 774 773 773 772 772 771 770 770 769 769 768 768 767 766 765 765 764 763 763 762 761 760 760 759 758 757 756 756 755 754
793 793 792 792 792 791 791 790 790 790 789 789 788 788 787 787 786 786 785 785 784 783 783 782 781 780 780 779 778 778 777 777 776 775 775 775 774 774 773 772 772 771 771 770 770 769 769 768 767 767 766 765 765 764 763 762 761 761 760 759 759 758 757 756 755 754 754 753 752
792 792 792 791 791 790 790 790 790 789 789 788 788 787 787 786 786 785 785 784 783 782 782 781 780 780 779 778 777 777 776 776 775 775 774 774 773 772 772 771 770 770 770 769 769 768 767 766 766 765 765 764 763 762 761 761 760 759 758 757 757 756 755 754 753 752 752 751 750
792 791 791 791 790 790 790 789 789 788 788 787 787 787 786 785 785 784 784 783 782 782 781 780 780 779 778 777 776 776 775 775 774 774 773 772 772 771 770 770 769 769 768 768 767 766 766 765 765 764 763 762 762 761 760 759 758 757 756 755 755 754 753 752 751 750 750 749 749
791 791 790 790 790 789 789 789 788 788 787 787 786 786 785 785 784 784 783 782 781 781 780 779 779 778 777 776 775 775 774 774 773 772 772 771 770 770 769 769 768 767 766 766 765 765 764 764 763 763 762 761 760 760 759 758 757 755 755 754 753 752 751 750 750 749 748 747 747
790 790 790 790 789 789 788 788 788 787 787 786 786 785 785 784 783 783 782 781 780 780 779 778 778 777 776 775 775 774 773 772 771 771 770 770 769 769 768 767 767 766 765 765 764 763 763 762 762 761 761 760 759 758 757 756 755 755 753 752 751 750 750 749 748 747 747 746 745
790 790 789 789 788 788 788 787 787 786 786 785 785 785 784 783 782 782 781 780 780 779 778 777 776 776 775 774 773 772 772 771 770 770 769 769 768 767 767 766 765 765 764 763 763 762 762 761 761 760 760 759 758 757 756 755 755 753 752 751 750 749 748 747 746 745 745 744 743
789 789 789 788 788 787 787 787 786 786 785 785 784 784 783 782 781 781 780 779 779 778 777 776 775 775 774 773 772 771 770 770 769 768 767 767 766 766 765 765 764 764 763 762 762 761 761 760 760 759 758 757 756 755 755 754 753 752 751 750 748 747 746 745 744 744 743 742 741
789 788 788 788 787 787 786 786 785 785 785 784 784 783 782 781 781 780 779 779 778 777 776 775 774 773 772 771 770 770 769 769 768 767 767 766 765 765 764 764 763 762 762 761 761 760 760 759 759 758 757 756 755 754 753 752 751 750 749 748 747 746 745 743 742 741 741 740 739
788 788 787 787 787 786 786 785 785 785 784 783 783 782 781 781 780 779 778 778 777 776 775 774 773 772 771 770 770 769 768 768 767 766 766 765 765 764 763 763 762 761 761 760 760 759 759 758 757 757 756 755 754 753 751 750 749 748 747 746 745 744 743 742 741 740 739 738 737
787 787 787 786 786 785 785 785 784 784 783 783 782 781 780 780 779 778 777 776 775 775 774 773 772 771 770 770 769 768 767 767 766 765 765 764 764 763 762 761 761 760 760 759 758 758 757 756 756 755 755 754 753 751 750 749 748 746 745 745 744 742 741 740 739 738 737 736 735
787 786 786 786 785 785 785 784 784 783 782 782 781 780 780 779 778 777 776 775 775 774 773 772 771 770 770 769 768 767 766 766 765 765 764 763 762 762 761 760 760 759 758 758 757 756 756 755 754 754 753 752 751 750 749 748 746 745 744 743 742 741 740 739 738 737 736 735 734
786 786 785 785 785 784 784 783 783 782 782 781 780 780 779 778 777 776 775 775 774 773 772 771 770 770 769 768 767 766 766 765 765 764 763 762 761 760 760 759 758 758 757 756 755 755 754 754 753 752 751 751 750 749 748 746 745 743 742 741 740 739 738 737 736 735 734 733 732
786 785 785 785 784 784 783 783 782 781 781 780 780 779 778 777 776 775 775 774 773 772 771 770 770 769 768 767 766 766 765 764 764 763 762 761 760 759 759 758 757 756 755 755 754 753 753 752 751 750 750 749 748 747 746 745 743 742 740 739 738 737 736 735 734 733 732 731 730
785 785 785 784 784 783 782 782 781 781 780 779 779 778 777 776 775 775 774 773 772 771 770 769 769 768 767 766 765 765 764 763 763 762 761 760 759 758 757 756 755 755 754 753 753 752 751 750 750 749 748 747 747 745 744 743 741 740 739 737 736 735 735 734 732 731 730 729 728
785 784 784 783 783 782 782 781 780 780 779 779 778 777 776 775 774 773 773 772 771 770 769 769 768 767 766 765 765 764 763 762 762 761 760 759 758 757 756 755 754 754 753 752 751 750 750 749 748 747 746 746 745 744 742 741 740 738 737 735 735 734 733 732 730 729 728 727 726
784 784 783 783 782 782 781 780 780 779 778 778 777 776 775 774 773 772 771 771 770 770 769 768 767 766 765 765 764 763 762 761 760 760 759 758 757 756 755 754 753 752 751 750 750 749 748 747 746 746 745 744 743 742 740 739 738 736 735 734 733 732 731 730 729 727 726 725 724
784 783 783 782 782 781 780 780 779 778 778 777 776 775 775 774 773 772 771 770 769 769 768 767 766 765 765 764 763 762 761 760 760 759 758 757 756 755 754 752 751 751 750 749 748 748 747 746 745 744 743 742 741 740 739 738 736 735 734 732 731 730 729 728 727 726 725 724 723
783 783 782 782 781 780 780 779 778 778 777 776 775 774 773 773 772 771 770 769 768 768 767 766 765 764 764 763 762 761 760 760 758 757 756 756 755 754 752 751 750 749 749 748 747 746 745 745 744 743 742 741 740 739 737 736 735 733 732 731 730 728 727 726 725 724 723 722 721
783 782 782 781 780 780 779 778 778 777 776 775 775 774 773 772 771 770 769 769 767 766 766 765 764 763 763 762 761 760 759 759 757 756 755 754 753 752 751 750 749 748 747 746 746 745 744 743 742 741 740 740 738 737 736 735 733 732 730 729 728 727 726 725 724 723 722 721 720
782 782 781 780 780 779 778 778 777 776 775 775 774 773 772 771 770 769 769 768 767 766 765 764 763 762 762 761 760 759 758 757 756 755 754 753 752 751 750 748 747 746 746 745 744 743 742 741 741 740 739 738 737 736 735 733 732 730 729 728 726 725 725 724 722 721 720 719 718
782 781 781 780 779 778 778 777 776 775 775 774 773 772 771 770 770 769 768 767 766 765 764 763 762 761 760 760 759 757 756 756 755 754 753 751 750 750 749 747 746 745 744 744 743 742 741 740 740 739 738 737 736 735 733 732 730 729 728 727 725 724 723 722 721 720 719 717 717
781 781 780 780 779 778 777 776 776 775 774 773 772 771 770 770 769 768 767 767 766 765 764 763 761 760 760 759 758 756 755 754 754 753 752 750 749 748 747 746 745 743 743 742 741 740 740 739 738 737 737 736 735 734 732 731 730 728 727 725 724 723 721 720 720 719 717 716 715
781 780 780 779 778 777 776 776 775 774 774 773 772 771 770 769 768 767 767 766 765 764 763 762 761 760 759 758 757 755 754 753 752 751 750 749 748 747 746 745 744 742 741 741 740 740 739 738 737 736 735 735 734 732 731 730 729 727 726 725 724 722 720 719 718 717 716 715 714
Wind_Speed
5 5 5 5 5 5 5 5 5 5 6 6 6 7 7 7 7 7 7 7 7 8 8 9 9 10 11 12 13 13 14 15 15 15 16 16 16 16 17 17 17 17 17 18 18 18 18 19 19 19 19 18 17 17 18 18 18 18 18 18 19 20 22 23 24 24 24 24 24
5 5 5 5 5 5 5 5 5 5 6 6 6 6 7 7 7 7 7 7 7 8 8 9 10 10 11 12 13 14 14 15 15 15 15 15 15 16 16 16 16 17 17 17 18 17 17 17 18 18 18 18 18 18 18 18 19 19 19 19 19 19 20 22 23 24 24 24 24
4 5 5 5 6 6 5 5 5 6 6 6 6 6 6 6 7 7 7 7 8 8 9 9 10 11 12 13 13 14 14 14 15 15 15 15 15 16 16 16 16 17 17 17 17 17 17 17 17 17 17 17 17 18 19 20 20 21 22 21 20 19 18 19 20 21 22 22 23
4 5 5 5 6 6 6 5 6 6 6 6 6 6 6 6 6 7 7 8 9 9 10 10 11 12 12 13 13 13 14 14 14 15 15 15 16 16 16 16 17 17 17 17 18 18 18 18 18 18 17 17 17 18 18 19 19 21 22 22 21 21 20 19 19 19 20 21 22
4 5 5 5 5 5 5 5 5 6 6 6 6 6 6 6 6 7 8 9 9 10 11 11 12 12 12 12 13 13 14 14 14 15 15 15 16 16 16 16 16 17 17 17 18 18 18 19 18 18 18 18 18 17 17 17 18 19 19 20 21 22 22 21 20 19 19 20 22
4 4 5 5 5 5 5 5 5 6 6 6 6 6 6 7 7 8 9 10 10 11 11 11 12 12 12 12 13 13 14 14 14 15 15 16 16 16 16 16 16 17 17 17 18 18 18 18 18 18 18 18 18 18 18 18 18 18 18 19 20 21 22 24 23 22 21 21 22
4 4 4 5 5 5 5 5 6 6 6 6 6 7 7 8 8 9 10 10 11 11 11 11 11 11 12 12 13 14 14 15 14 14 15 15 15 15 16 16 16 16 17 17 18 18 18 18 18 17 17 17 18 18 19 19 19 19 19 19 19 19 21 23 23 23 23 23 23
4 4 4 5 5 5 5 6 6 7 7 6 7 7 8 9 9 10 10 10 10 10 10 11 11 12 12 13 14 14 14 14 15 14 14 14 15 15 16 16 16 17 17 17 17 18 18 18 18 18 17 17 17 17 18 18 19 21 21 22 21 20 19 19 21 22 24 24 24
4 4 4 5 5 5 6 6 6 7 7 7 7 8 8 9 9 10 10 10 10 10 11 11 12 13 13 13 14 14 14 14 14 14 14 14 15 15 16 16 17 17 17 17 17 17 17 18 18 18 17 17 17 17 18 18 19 20 21 22 23 24 24 23 22 23 24 26 26
4 4 4 5 5 6 6 7 6 6 6 7 7 8 8 9 9 9 9 9 10 11 11 12 12 13 13 13 13 13 13 13 14 14 15 15 15 16 16 16 17 17 17 17 17 17 17 17 17 18 18 19 19 20 20 20 20 21 22 22 23 24 25 26 25 25 26 27 27
4 4 4 5 5 6 6 7 6 6 6 7 7 8 8 8 9 9 10 10 11 11 11 12 12 13 13 13 13 13 13 13 14 14 15 15 16 16 16 16 17 17 17 18 18 18 18 17 17 18 18 19 20 20 21 21 21 22 23 23 23 24 25 26 26 26 26 27 27
4 4 4 5 5 6 7 7 7 6 7 7 8 8 8 9 9 10 10 11 11 11 12 12 12 13 13 13 13 13 13 14 14 15 16 16 16 16 16 17 17 17 17 17 18 18 17 17 17 18 19 19 20 20 21 21 21 22 23 23 22 22 23 24 25 26 26 27 27
4 4 5 5 6 6 7 7 7 7 7 8 8 9 9 9 10 11 11 11 12 12 12 12 12 12 13 13 13 13 14 14 15 15 16 16 16 17 17 17 17 17 17 17 17 17 17 18 18 18 19 19 20 21 21 22 22 22 22 22 22 22 22 23 24 25 26 27 28
4 4 5 6 6 7 7 8 7 7 8 8 9 9 10 10 11 11 11 12 12 12 13 13 13 12 13 13 14 14 15 15 16 16 16 16 16 17 17 17 17 17 17 16 17 17 18 18 19 19 19 20 20 21 22 23 23 23 23 23 23 24 24 24 24 24 25 26 27
4 5 5 6 7 7 8 8 8 8 8 9 10 10 11 11 11 11 12 12 13 13 13 13 13 13 13 14 14 15 15 16 16 16 16 17 17 16 17 17 17 17 17 17 17 18 18 19 19 20 20 20 21 21 22 22 23 24 24 24 25 25 26 26 25 25 25 25 26
5 6 6 7 8 8 8 9 9 9 9 10 11 11 11 11 12 12 12 13 13 13 13 13 14 14 14 14 15 15 15 16 16 16 16 16 17 17 17 17 17 17 17 17 18 18 18 19 19 20 21 21 22 22 22 22 23 23 24 25 25 26 27 27 26 25 25 24 25
5 6 7 7 8 8 9 9 9 10 10 11 11 12 12 12 12 12 13 13 14 14 14 15 15 15 15 15 15 15 15 16 16 16 16 17 17 17 17 17 17 17 17 18 18 18 19 19 19 20 21 22 22 22 22 22 22 23 24 25 26 26 26 26 26 25 25 24 24
6 7 7 8 8 8 9 9 10 10 11 11 12 12 12 12 13 13 14 14 14 15 15 16 16 15 16 16 16 16 15 16 16 16 16 17 17 17 17 17 17 17 17 18 18 19 19 19 19 20 21 21 22 22 22 22 22 23 24 25 26 27 27 27 26 26 26 26 26
6 7 7 8 8 9 9 10 10 11 11 11 12 12 12 13 13 14 14 14 14 15 15 16 16 16 16 16 16 16 16 16 16 17 17 17 17 17 17 18 18 17 17 17 18 18 19 19 19 20 20 21 22 22 22 22 22 23 23 24 25 25 25 25 25 25 25 25 26
6 7 7 8 9 9 10 10 10 11 11 12 12 13 13 13 14 14 14 15 15 15 15 16 16 17 17 17 17 16 16 16 17 17 17 17 17 17 17 18 18 17 17 17 17 18 19 20 20 20 20 21 21 22 22 22 22 22 22 22 22 22 22 22 22 22 21 22 23
7 7 8 8 9 9 10 10 11 11 12 12 13 13 13 14 14 14 14 15 15 15 15 16 17 17 17 17 17 17 17 16 16 17 17 17 17 17 17 17 18 17 17 17 18 18 19 19 20 20 20 20 20 21 21 21 20 20 21 22 22 22 23 24 24 23 23 23 23
7 7 8 8 9 9 10 10 11 11 12 12 13 13 14 14 14 14 14 15 15 15 16 16 17 17 17 17 17 17 17 17 17 17 17 17 17 17 17 17 18 18 18 19 19 19 18 18 18 18 19 19 19 20 20 21 22 23 23 24 25 26 26 27 27 26 26 26 26
7 8 8 9 9 10 10 11 11 12 12 13 13 13 14 14 14 14 15 15 15 16 16 16 17 17 17 17 17 18 18 18 17 17 17 17 17 17 17 17 18 18 19 19 18 18 17 17 17 17 18 19 20 21 22 23 24 25 25 26 26 27 27 27 27 27 27 27 27
8 8 9 9 9 10 11 11 12 12 12 13 13 14 14 14 14 15 15 15 16 16 16 17 17 17 17 17 17 17 17 18 18 17 17 17 17 17 17 17 17 18 18 17 17 16 16 16 17 18 19 20 21 22 23 23 24 24 25 26 26 26 26 26 27 27 27 27 27
8 8 9 9 10 10 11 11 12 12 13 13 14 14 14 15 15 15 15 16 16 16 17 17 18 18 18 17 17 17 17 17 17 17 18 17 17 17 17 17 17 17 16 16 16 16 16 17 18 19 20 21 22 23 23 23 23 24 24 24 25 25 25 25 26 26 26 26 26
8 9 9 10 10 11 11 12 12 12 13 13 14 14 15 15 15 15 16 16 17 17 17 18 18 18 17 17 17 16 16 16 17 17 18 18 18 18 17 17 17 16 16 15 16 17 18 19 20 21 22 22 22 23 23 23 23 23 23 24 24 24 24 24 25 25 25 25 26
9 9 10 10 11 11 11 12 12 13 13 13 14 14 15 15 15 16 16 16 17 17 17 17 17 17 17 16 16 16 16 17 17 18 18 18 18 18 18 17 17 16 16 17 18 19 20 21 21 22 22 22 22 23 23 23 23 24 23 23 23 24 24 24 24 25 25 25 25
9 10 10 11 11 11 12 12 12 13 13 14 14 14 15 15 16 16 16 17 17 17 17 17 16 16 15 15 16 16 17 18 18 19 19 18 18 18 18 17 17 17 18 18 19 21 21 22 22 22 22 22 23 23 23 23 24 24 23 23 23 23 23 24 24 24 25 25 25
10 10 11 11 11 11 12 12 13 13 13 14 14 15 15 15 16 16 16 17 17 17 16 16 16 16 15 16 17 18 18 19 19 19 19 19 18 18 18 18 18 18 19 20 20 21 22 22 22 22 22 22 23 23 23 24 24 24 23 23 23 23 23 23 24 24 25 26 26
10 10 11 11 11 12 12 12 13 13 14 14 15 15 15 15 16 16 16 16 16 16 16 16 16 16 17 17 18 18 19 18 18 18 18 19 19 19 19 19 19 20 20 20 21 21 22 22 22 22 22 23 24 24 24 24 24 24 24 23 23 24 24 24 25 25 26 26 26
10 11 11 12 12 12 12 13 13 13 14 14 15 15 15 15 16 16 16 16 16 16 17 16 17 17 18 18 18 18 18 18 18 18 18 19 19 20 20 20 20 20 21 21 21 22 22 22 22 23 23 24 24 25 25 25 25 25 25 24 24 24 25 25 25 26 26 26 27
11 11 11 12 12 13 13 13 13 14 14 14 15 15 15 15 16 16 16 16 16 17 17 17 17 17 18 18 18 18 18 18 18 18 19 19 20 20 21 21 21 21 21 22 22 22 23 23 23 23 24 24 25 25 25 25 25 25 25 25 25 25 25 25 25 26 26 27 27
11 11 12 12 13 13 13 13 14 14 14 15 15 15 16 16 16 16 16 16 16 16 16 17 17 18 18 18 18 18 18 18 19 19 19 20 20 21 21 22 22 22 22 22 23 23 23 23 24 24 24 25 25 25 25 24 24 24 24 24 24 24 24 25 26 27 27 27 27
12 12 12 12 13 13 14 14 14 14 15 15 15 15 16 16 17 17 17 16 16 16 16 17 17 17 18 18 18 18 19 19 19 19 20 20 21 21 22 22 22 22 22 23 23 23 23 24 24 24 25 25 25 25 24 24 24 23 23 23 24 24 25 25 26 27 28 27 26
12 12 13 13 13 14 14 14 15 15 15 15 16 16 16 16 16 17 17 17 17 17 17 17 17 17 18 18 18 19 19 20 20 20 21 21 22 22 22 23 23 23 22 23 23 23 23 23 24 24 25 25 25 24 23 23 23 23 23 23 24 24 25 25 26 26 26 25 24
12 13 13 13 14 14 14 15 15 15 15 16 16 16 16 16 16 16 17 17 17 17 17 17 17 17 18 18 19 19 19 20 21 21 22 22 22 23 23 23 23 23 23 23 23 23 23 23 23 24 25 25 24 23 22 22 22 22 23 23 23 24 24 24 24 23 23 23 23
12 13 13 14 14 14 14 15 15 15 16 16 16 16 17 17 17 17 17 17 17 17 18 18 18 18 18 19 20 20 20 21 21 22 23 23 23 23 23 24 24 24 24 23 23 23 23 23 23 24 24 24 23 22 22 21 21 22 22 22 22 23 23 22 22 22 22 23 23
12 13 13 14 14 14 14 15 15 16 16 16 16 16 17 17 17 17 17 17 17 18 18 19 19 19 19 20 21 21 22 22 22 22 23 23 23 23 24 25 25 25 24 24 23 23 23 23 23 23 23 23 22 22 21 21 20 21 21 21 22 22 22 21 21 21 22 22 23
12 13 13 13 14 14 14 15 15 15 16 16 16 17 17 17 17 17 17 17 17 18 19 19 20 20 21 21 22 22 23 22 22 22 23 24 24 24 24 25 25 25 24 24 23 22 22 22 22 22 22 22 21 21 20 20 20 21 21 21 21 22 22 22 21 21 21 22 22
12 13 13 13 14 14 15 15 15 15 15 16 16 17 17 17 17 17 17 17 18 18 19 20 20 21 21 22 22 23 23 23 23 23 23 24 24 24 24 25 25 25 24 23 22 22 22 22 21 21 21 20 20 20 19 19 20 21 21 21 21 21 22 22 21 21 21 21 22
12 13 13 13 14 14 15 15 15 15 15 15 16 16 17 17 17 17 18 18 18 19 20 20 20 21 22 22 22 23 23 24 23 23 23 23 24 24 23 23 24 24 23 22 22 22 22 22 21 21 20 19 19 19 19 19 20 21 21 21 21 21 21 22 22 22 22 22 23
Wind_Direction
30 29 25 20 16 10 5 0 357 353 349 344 341 338 335 331 327 323 322 321 319 319 318 316 315 315 315 315 316 317 316 315 314 314 312 311 310 309 308 307 306 305 303 301 300 299 297 296 296 296 295 294 292 290 289 289 291 292 290 287 284 280 278 278 278 279 280 280 279
27 27 26 22 18 11 5 359 355 350 345 339 334 330 327 322 318 315 314 313 313 313 312 310 309 310 311 312 312 313 313 313 313 312 311 310 310 310 309 308 307 305 304 303 302 301 299 297 295 293 290 289 289 288 286 284 285 286 287 287 287 285 282 278 276 276 277 277 277
21 22 22 19 14 8 1 354 348 341 336 330 325 321 318 314 311 309 309 308 308 309 308 307 307 307 309 310 311 311 312 312 312 312 311 311 310 310 310 309 308 307 306 305 305 304 303 301 298 294 289 286 284 283 281 280 280 280 280 282 285 287 285 280 276 275 275 274 275
17 19 18 13 7 2 355 347 339 333 328 322 317 314 311 309 308 308 308 307 308 307 306 306 306 307 308 309 310 311 311 311 312 312 311 311 310 310 309 309 308 307 307 306 305 304 303 302 300 296 291 289 286 283 281 280 278 275 275 276 279 281 283 283 282 278 274 271 271
11 12 11 8 1 355 349 341 334 328 321 315 311 310 309 309 310 310 309 309 308 306 305 306 306 307 308 309 310 311 311 311 311 311 311 310 309 308 308 308 308 307 307 306 305 303 302 300 298 295 293 291 289 287 286 285 281 277 274 273 274 275 277 280 283 283 278 273 270
3 3 2 360 354 349 342 335 329 322 316 311 309 309 310 311 312 312 311 309 306 305 306 307 308 309 311 311 312 313 313 313 311 310 310 309 308 308 308 307 307 307 306 305 304 303 302 301 296 293 291 290 288 287 287 288 288 286 282 277 274 273 273 274 277 280 281 277 271
354 356 355 350 346 341 336 332 327 322 317 313 311 312 313 313 313 312 311 309 308 309 310 312 313 314 315 315 315 314 313 312 311 310 309 308 308 308 308 307 307 306 305 304 304 303 303 302 296 292 289 287 286 285 285 287 288 289 288 284 279 275 272 271 272 275 276 276 274
344 346 345 342 340 338 335 332 328 324 320 317 316 315 315 314 314 314 313 312 312 313 314 314 314 314 315 314 314 313 312 311 311 311 310 309 308 308 307 306 305 304 303 303 302 302 302 301 296 292 289 286 283 283 283 284 284 283 282 282 280 278 278 276 274 273 274 276 278
336 336 336 336 337 337 335 332 328 326 323 319 318 316 316 315 315 315 316 315 315 315 315 314 313 313 314 313 313 312 312 312 311 311 310 309 308 307 307 306 304 303 302 301 300 299 298 297 294 292 290 289 287 286 286 285 283 281 279 279 280 282 282 282 281 279 278 278 280
330 330 331 334 335 334 332 331 329 327 324 321 319 318 316 315 316 317 317 316 315 315 314 313 313 314 314 313 313 312 312 311 311 310 310 309 308 307 306 305 304 303 302 300 299 297 296 293 291 291 291 291 290 289 288 287 286 285 283 281 281 281 281 281 281 282 281 281 280
326 326 328 330 331 331 332 332 330 329 327 324 322 320 318 318 319 320 319 317 316 315 314 313 314 314 314 313 312 312 312 311 310 310 309 308 307 306 305 304 303 302 301 300 298 296 293 289 288 288 288 289 289 288 287 286 284 283 281 279 277 277 277 278 279 279 280 280 280
324 324 326 328 329 331 333 333 331 330 328 326 325 324 324 324 323 323 321 320 318 316 315 315 315 314 313 312 312 312 311 311 310 310 309 308 307 306 304 303 302 301 300 299 298 295 292 288 286 286 286 288 288 288 288 286 283 281 279 277 276 275 274 275 276 277 277 278 278
324 325 326 328 330 333 334 334 332 330 330 330 330 330 329 327 325 324 323 322 320 318 316 315 314 313 313 312 312 311 311 310 310 309 308 307 306 305 304 303 302 301 300 299 298 296 293 291 289 288 288 289 290 291 291 291 289 287 285 283 282 279 277 276 275 275 275 276 276
326 327 327 330 332 334 336 336 334 332 332 332 333 333 331 328 327 325 324 322 320 318 316 314 313 312 312 311 311 310 310 309 309 308 307 306 306 305 304 303 302 301 300 298 297 296 295 294 292 291 290 290 290 291 292 293 292 291 290 289 287 285 282 279 276 275 274 274 274
331 331 332 334 335 336 337 337 335 333 332 332 332 332 330 328 326 325 323 321 319 316 315 313 312 311 310 310 310 309 309 309 308 308 307 306 305 305 304 303 302 301 300 298 297 296 296 295 295 294 292 290 289 289 289 290 290 290 289 288 287 285 283 280 277 274 272 272 273
337 336 336 336 337 337 337 337 334 333 331 330 330 329 328 326 324 323 322 319 317 315 314 312 311 310 309 309 309 309 309 309 308 307 307 306 306 305 304 303 302 301 300 299 298 297 296 295 295 294 293 291 289 287 287 287 287 288 287 286 285 283 281 279 277 275 273 272 271
340 339 338 337 337 337 336 335 333 331 328 327 326 326 325 323 322 320 319 317 315 314 313 311 310 309 309 308 309 309 309 307 307 307 306 305 305 304 304 302 302 301 300 299 298 297 296 296 295 294 293 291 289 288 287 286 286 287 287 287 285 283 281 279 278 277 277 276 274
341 340 338 337 336 335 334 333 330 328 326 325 324 323 321 320 318 317 315 315 314 312 312 311 310 309 308 308 308 307 307 305 305 305 305 304 303 303 302 302 301 301 300 300 299 298 297 296 296 295 294 293 292 291 290 288 287 287 287 287 287 285 283 281 279 278 277 278 278
341 339 337 336 334 333 331 330 328 326 324 323 321 320 318 317 316 314 314 313 312 312 311 310 310 309 308 307 306 306 305 304 303 303 303 303 302 302 302 301 301 300 300 299 299 299 298 298 297 297 296 296 295 294 292 290 288 287 286 287 286 286 285 283 279 276 274 274 275
339 337 335 333 332 330 329 327 326 324 322 321 319 318 317 315 314 314 313 312 312 311 310 309 309 308 307 306 305 304 303 303 303 302 302 302 302 302 301 301 301 301 300 300 300 299 299 299 299 298 297 296 295 294 293 292 290 289 289 289 290 291 291 291 289 287 283 279 277
337 334 332 330 329 328 326 325 323 322 321 319 318 317 316 315 314 313 312 312 311 310 309 308 308 307 306 306 305 304 302 301 300 300 300 300 301 301 301 301 301 301 300 300 300 300 300 299 299 299 298 297 296 296 296 297 298 298 298 298 298 298 298 298 298 297 296 293 290
334 331 329 328 327 325 324 323 321 321 320 319 318 316 316 315 314 313 312 311 311 310 308 308 307 306 305 304 304 302 301 300 298 297 297 298 299 299 300 300 300 299 299 299 299 299 299 299 300 300 300 300 300 300 301 303 304 303 302 301 300 299 298 297 296 296 295 294 292
330 329 328 327 326 324 323 322 321 321 320 319 318 317 316 315 314 313 313 312 311 309 308 308 307 305 304 303 302 301 301 299 298 296 296 297 297 297 299 299 298 298 298 298 298 298 300 300 301 302 302 303 303 303 303 303 302 301 300 299 297 296 295 294 293 292 291 290 289
329 328 328 326 326 324 323 322 322 321 321 320 318 317 317 316 315 314 313 312 311 310 309 308 306 305 303 302 301 301 300 300 299 297 297 297 297 298 299 299 298 297 298 298 297 297 298 299 300 302 302 303 303 302 301 300 299 298 297 296 295 294 293 292 291 290 288 287 286
329 328 328 327 326 324 324 323 322 321 320 319 318 317 317 316 315 314 313 312 312 311 309 308 307 306 304 302 301 301 300 300 299 299 299 299 299 299 299 298 298 297 297 298 298 298 298 299 300 301 302 302 301 300 299 298 297 296 295 294 293 293 292 291 290 288 287 285 284
330 329 329 327 326 325 324 324 322 321 320 319 318 318 317 317 315 315 314 313 312 311 310 308 307 306 305 303 302 302 301 299 299 300 300 300 300 300 299 299 299 299 299 299 300 300 300 300 300 301 301 301 300 299 299 297 296 295 294 293 292 291 291 290 290 288 287 285 283
332 331 329 328 327 326 325 323 322 321 320 319 319 318 317 317 316 315 314 313 313 312 311 310 309 307 306 305 304 303 302 300 300 299 299 299 300 300 300 300 300 300 300 300 301 301 301 301 301 301 300 300 299 299 298 297 297 296 294 292 291 290 290 290 289 289 288 287 285
333 331 329 328 327 326 324 323 323 321 321 320 319 318 318 317 316 315 314 314 314 313 313 311 310 308 306 306 305 303 302 302 300 300 299 299 299 300 300 301 300 300 300 301 301 301 302 302 301 301 300 299 299 298 297 296 296 295 294 292 290 289 288 288 289 289 289 289 288
332 331 329 328 327 326 325 324 323 321 320 320 319 319 318 317 317 316 316 315 315 314 313 311 310 308 307 305 304 303 303 302 301 301 301 300 300 300 300 300 300 301 301 301 302 302 302 302 302 301 300 300 299 298 297 295 294 293 292 291 289 288 287 287 287 288 288 288 288
333 331 330 328 327 326 325 324 322 321 321 320 320 319 318 317 317 317 317 316 315 313 312 310 309 307 306 305 304 304 304 303 303 303 303 303 302 301 301 301 301 301 301 302 302 302 302 302 302 301 301 300 300 298 296 294 293 292 291 289 289 288 287 286 286 286 286 286 286
333 331 329 328 327 325 324 323 322 322 321 321 320 319 319 319 318 318 317 316 313 312 312 310 309 307 306 306 305 305 304 305 305 305 305 304 304 303 302 301 301 301 301 301 301 302 301 301 301 301 302 302 301 299 296 294 293 291 290 289 288 288 287 286 285 284 284 284 284
333 331 330 328 326 325 324 323 323 322 322 321 320 320 319 319 318 318 317 316 315 314 313 312 311 310 309 308 307 306 305 306 306 306 306 305 305 304 303 303 302 301 301 301 300 300 301 301 301 302 302 303 302 300 297 295 293 291 289 288 287 287 287 286 285 284 283 283 283
333 332 330 328 326 325 324 324 324 323 322 322 321 321 320 319 319 319 318 317 316 315 313 313 312 311 309 309 308 307 307 307 307 307 306 306 306 305 305 304 303 302 301 301 300 300 300 301 302 303 303 304 303 301 298 296 293 291 289 287 287 287 287 287 285 284 282 281 281
333 332 330 328 326 325 325 324 324 323 323 323 322 321 321 320 320 319 318 317 316 315 313 312 311 309 308 308 308 307 308 308 308 308 308 308 307 306 306 305 304 303 303 302 300 300 300 301 302 302 303 304 303 301 299 297 294 291 290 288 288 288 288 287 286 284 283 281 281
333 331 329 327 326 325 325 324 324 324 324 323 323 322 322 322 321 319 318 317 316 314 313 311 311 309 308 308 308 308 309 309 309 309 309 308 308 307 306 305 305 304 304 303 302 301 301 301 301 302 303 303 303 301 299 297 295 293 291 290 290 290 289 289 288 287 286 285 286
332 331 328 327 326 325 324 324 324 324 324 324 323 322 322 322 321 319 318 317 316 315 314 313 312 311 311 311 310 310 310 310 310 309 309 308 307 306 306 305 305 306 306 305 304 303 302 301 301 302 303 303 303 301 299 296 295 294 293 292 291 291 291 291 290 291 291 291 290
331 329 327 326 324 324 324 324 324 324 324 323 323 323 323 322 320 319 319 319 317 316 314 314 314 313 313 312 312 311 310 310 309 309 308 308 307 307 306 306 306 306 306 305 304 303 302 302 302 303 304 303 302 301 298 296 295 295 295 295 293 294 294 294 294 293 293 293 292
330 328 326 324 323 323 323 323 323 323 323 322 322 323 323 322 320 320 319 319 317 316 315 314 314 313 313 312 312 311 310 310 309 309 308 308 308 308 307 307 307 307 306 305 304 304 303 303 304 304 304 303 302 300 299 297 297 297 297 297 296 296 296 296 295 295 294 293 292
328 326 324 323 322 322 322 322 322 322 322 322 322 322 322 321 320 318 318 317 316 315 314 314 314 313 313 313 312 311 310 310 310 310 309 309 309 309 308 308 307 307 307 307 306 306 306 307 306 306 305 303 301 299 299 298 298 298 298 298 298 298 298 297 296 295 294 294 294
326 324 323 322 321 321 321 321 321 321 322 322 322 322 320 319 318 317 317 317 317 316 315 314 313 313 313 314 313 312 311 311 311 311 310 310 309 310 310 309 309 309 309 309 310 310 310 310 310 309 308 305 302 300 299 299 299 299 299 299 299 299 299 299 298 297 297 296 296
325 323 321 321 321 321 320 320 321 322 322 322 321 320 319 318 318 318 318 318 318 317 316 314 313 313 314 314 313 312 312 312 312 312 312 311 311 312 312 311 311 311 311 312 312 313 313 313 313 313 312 310 307 304 301 300 299 299 299 300 301 301 302 301 301 300 298 298 297